Flag for Germany Weather past 2 weeks in Kerpen, North Rhine-Westphalia, Germany

Now
68 °F

Scattered clouds.


Feels Like: 68 °F
Forecast: 55 / 76 °F
Wind: 3 mph from Northeast

Location: Noervenich

Current Time: Jul 25, 2014 at 11:48:19 AM

Latest Report: Jul 25, 2014 at 11:20 AM


Visibility: N/A

Pressure: 29.98 "Hg

Humidity: 69%

Dew point: 57 °F

Location of KerpenLocation

Historic Weather in Kerpen — Graph

°F

Kerpen temperature yesterday

Maximum temperature yesterday: 79 °F (at 1:20 PM)
Minimum temperature yesterday: 61 °F (at 6:20 AM)
Average temperature yesterday: 69 °F

Past Weeks' High & Low Weather Summary

 TemperatureHumidityPressure
High93 °F (Jul 18, 5:20 PM)100% (Jul 11, 12:49 AM)30.18 "Hg (Jul 11, 12:49 AM)
Low55 °F (Jul 14, 5:20 AM)28% (Jul 18, 5:20 PM)29.74 "Hg (Jul 13, 4:20 PM)
Average69 °F76%29.97 "Hg
* Reported Jul 10 10:20 AM — Jul 25 10:20 AM, Kerpen, Weather by CustomWeather, © 2014

Note: Actual official high and low records may vary slightly from our data, if they occured in-between our weather recording intervals... More about our weather records

Advertising

Kerpen weather history for previous 24 hours

 ConditionsComfort  
Time TempWeatherWind HumidityBarometerVisibility
10:20 AM
Jul 25
68 °FPassing clouds.3 mph73%29.98 "HgN/A
9:20 AM66 °FPassing clouds.1 mph78%29.98 "HgN/A
8:20 AM64 °FPassing clouds.1 mph83%29.98 "HgN/A
7:20 AM59 °FPassing clouds.No wind94%29.98 "HgN/A
6:20 AM57 °FFog.No wind94%29.98 "HgN/A
5:20 AM57 °FFog.2 mph94%29.98 "HgN/A
4:20 AM57 °FPassing clouds.1 mph100%29.95 "HgN/A
3:20 AM59 °FPassing clouds.1 mph94%29.98 "HgN/A
2:20 AM61 °FPassing clouds.1 mph88%29.98 "HgN/A
1:20 AM61 °FPartly cloudy.2 mph88%29.98 "HgN/A
12:20 AM63 °FPartly cloudy.No wind83%29.98 "HgN/A
11:20 PM
Jul 24
63 °FPassing clouds.3 mph77%29.98 "HgN/A
10:20 PM64 °FBroken clouds.3 mph73%29.98 "HgN/A
9:20 PM66 °FPartly sunny.5 mph73%29.98 "HgN/A
8:20 PM68 °FSprinkles. Partly sunny.5 mph73%29.95 "HgN/A
7:20 PM68 °FThundershowers. Broken clouds.6 mph78%29.95 "HgN/A
6:20 PM70 °FThunderstorms. Broken clouds.2 mph78%29.95 "HgN/A
5:20 PM70 °FThundershowers. Broken clouds.3 mph78%29.98 "HgN/A
5:04 PM70 °FThunderstorms. Broken clouds.2 mph69%29.98 "HgN/A
4:20 PM70 °FThundershowers. Broken clouds.3 mph69%29.95 "HgN/A
3:20 PM72 °FThunderstorms. Partly sunny.9 mph57%29.95 "HgN/A
2:59 PM79 °FThunderstorms. Scattered clouds.5 mph42%29.95 "HgN/A
2:20 PM77 °FScattered clouds.5 mph47%29.95 "HgN/A
1:20 PM79 °FPassing clouds.3 mph45%29.95 "HgN/A
12:20 PM77 °FScattered clouds.6 mph51%29.98 "HgN/A
11:20 AM75 °FPartly sunny.2 mph50%29.98 "HgN/A
Weather by CustomWeather, © 2014

See weather overviewHow to use our weather pages